Simultaneous Nadir Overpasses (SNOs) Predictions

Prediction of SNOs between METOP-B and TERRA Satellite Orbit:

Table of predicted SNOs for the next 14.0 days since TLE Epoch: 3/13/2021
Index Date (METOP-B) Time (METOP-B) Lat,Lon (METOP-B) SZA (METOP-B ) Date (TERRA) Time (TERRA) Lat,Lon (TERRA) SZA (TERRA ) Distance(km) Time Diff (sec)
1 03/13/2021 03:59:40 81.31, 167.05 86.63 03/13/2021 03:58:55 81.32, 167.09 86.62 0.87 45
2 03/15/2021 22:43:22 -81.30, 65.59 94.51 03/15/2021 22:43:43 -81.30, 65.48 94.52 2.03 21
3 03/15/2021 23:34:01 81.31,-126.50 85.55 03/15/2021 23:33:08 81.32,-126.41 85.54 1.69 53
4 03/18/2021 18:17:43 -81.31, 132.02 95.59 03/18/2021 18:17:56 -81.30, 131.97 95.60 1.13 13
5 03/18/2021 19:08:22 81.31, -60.06 84.47 03/18/2021 19:07:21 81.32, -59.95 84.46 2.07 61
6 03/21/2021 13:52:04 -81.31,-161.57 96.68 03/21/2021 13:52:09 -81.30,-161.59 96.68 0.79 5
7 03/21/2021 14:42:42 81.31, 6.36 83.39 03/21/2021 14:41:33 81.32, 6.46 83.37 2.00 69
8 03/24/2021 08:35:44 81.30, 97.10 82.21 03/24/2021 08:36:54 81.30, 97.18 82.25 1.34 70



Historial Predications of SNOs between METOP-B and TERRA
